Tracking 27112 objects as of 27-Mar-2023
HD Live streaming from Space Station
objects crossing your sky now

BREEZE-M DEB (TANK)

Track BREEZE-M DEB (TANK) now!
10-day predictions


NORAD ID: 37828
Int'l Code: 2011-054C
Perigee: 344.2 km
Apogee: 17,002.0 km
Inclination: 49.5 °
Period: 306.1 minutes
Semi major axis: 15044 km
RCS: 6.7148 m2 (large)
Launch date: September 29, 2011
Source: Commonwealth of Independent States (former USSR) (CIS)
Launch site: TYURATAM MISSILE AND SPACE COMPLEX (TTMTR)

Note: This is SATELLITE DEBRIS
Your satellite tracking list
Your tracking list is empty




NASA's NSSDC Master Catalog

Two Line Element Set (TLE):
1 37828U 11054C   23084.55650194  .00002738  00000-0  10535-2 0  9997
2 37828  49.4761  52.8144 5536315 198.3995 128.9690  4.70492969191812
Source of the keplerian elements: AFSPC